Starlink 32034

operational
NORAD ID: 60297 Int'l Des: 2024-132 Owner: SPXS Country: US Constellation: starlink
LEOCIRCULAR

关于 Starlink 32034

正在加载描述...

实时位置

正在加载3D地球...

即将过境

高度历史

Altitude vs Time

uPlot chart will show altitude changes over time

两行轨道根数

1 60297U 24132V 25260.96105308 -.00000373 00000-0 -47110-6 0 9997
2 60297 53.1605 134.8182 0001366 94.6364 265.4793 15.30191294 65115
Epoch: Sep 17, 2025 • Age: 13 hours

当前状态

高度 480.9 km
速度 7.63 km/s
星下点 53.25°N, 48.47°E
发射日期 Jul 28, 2024
运行时间 1.1 years
类型 internet

技术详情

分类 Payload
质量 730.00 kg
干质量 700.00 kg
总质量 730.00 kg
长度 0.30 m
直径 4.10 m
跨度 29.00 m
形状 Box + pan
制造商 SPXS
平台类型 Starlink V2M
阶段状态 In Orbit
所有者/国家 SPXS/US

大型星座

Loading constellations...